User: anonymous   Login
Location: Mentone
(34.5413°N, 85.5351°W)
Time: 05:12:42
(UTC-06:00)
Language:

AO-Echo - Orbit

View from above orbital plane
View from above orbital plane
View from above satellite
View from above satellite

Ground track
Ground track

The orbit data is extracted from the following two-line orbital elements,

1 28375U 04025K   15062.39669017  .00000439  00000-0  14303-3 0  9991
2 28375 098.2828 005.9403 0081664 289.5177 069.7206 14.41598387561247
Epoch (UTC): 03 March 2015 09:31:14
Eccentricity: 0.0081664
inclination: 98.2828°
perigee height: 695 km
apogee height: 811 km
right ascension of ascending node: 5.9403°
argument of perigee: 289.5177°
revolutions per day: 14.41598387
mean anomaly at epoch: 69.7206°
orbit number at epoch: 56124

The dashed part of the orbit path shows where the satellite is in the earth's shadow,  

DLR